WS Maaseik 1 Meer informatie WS Maaseik 1


WS Maaseik 2 Meer informatie WS Maaseik 2


Regen radar Meer informatie rain snow radar


Bezoek onze andere website:

Vorige versie
weerstation Maaseik


Bezoek ook eens deze sites:

Weerstation Geleen



Het weer levert geen direct gevaar op.    Er zijn geen waarschuwingen afgegeven.

15 daagse weersverwachting Groningen (NL)

  • Overzicht
  • Per uur
  • 15 dagen
  • Extra
  • Vergelijk
  • Kaarten
  • Dagkaart
  • Meer »
  • Info
  • Statistieken
  • Directe link
    Temp 6h Neerslag Wind  
 06:00     21:20    Daglengte: 15:20 Vandaag
20:00
20°
1.2 mm
1
 06:02     21:18    Daglengte: 15:16 Morgen
02:00
15°
 
3
08:00
15°
 
4
14:00
19°
3.6 mm
4
20:00
18°
5.5 mm
4
 06:03     21:17    Daglengte: 15:14 Zaterdag 07 Aug
02:00
15°
 
4
08:00
14°
 
5
14:00
20°
 
4
20:00
19°
9.2 mm
2
 06:05     21:15    Daglengte: 15:10 Zondag 08 Aug
02:00
15°
6.3 mm
4
08:00
15°
15.4 mm
5
Locatie info
Region: Groningen
Latitude: 53.2172°N
Longitude: 6.5736°E
16 masl
Postcode: 9711
Temp/Neerslag /Baro Onweer/Dauwpunt
    Temp Baro 1h Neerslag Dauwpunt Wind UV Bewolking  
 06:00     21:20    Daglengte: 15:20 Vandaag
15:00
22°
1007.9 hPa
47%
15.7°
2
Windvlaag: 3.8 m/s
13%
16:00
22°
1007.3 hPa
43%
17.0°
2
Windvlaag: 4.2 m/s
14%
17:00
21°
1007.0 hPa 0.9 mm
82%
17.0°
2
Windvlaag: 5.8 m/s
50%
18:00
21°
1006.6 hPa
78%
17.1°
2
Windvlaag: 4.7 m/s
9%
19:00
20°
1006.1 hPa
72%
17.0°
2
Windvlaag: 2.6 m/s
12%
20:00
20°
1006.0 hPa 0.3 mm
73%
16.8°
1
Windvlaag: 2.6 m/s
40%
21:00
19°
1005.7 hPa
41%
16.2°
2
Windvlaag: 2.3 m/s
52%
22:00
17°
1005.6 hPa
68%
16.2°
2
Windvlaag: 2 m/s
32%
23:00
17°
1005.1 hPa
14%
15.7°
2
Windvlaag: 2.5 m/s
68%
 06:02     21:18    Daglengte: 15:16 Morgen
00:00
16°
1004.7 hPa
14%
15.5°
2
Windvlaag: 3.3 m/s
45%
01:00
16°
1004.1 hPa
14%
15.3°
3
Windvlaag: 3.6 m/s
33%
02:00
15°
1003.6 hPa
14%
15.0°
3
Windvlaag: 3.8 m/s
14%
03:00
15°
1003.1 hPa
14%
14.8°
3
Windvlaag: 4 m/s
8%
04:00
15°
1002.6 hPa
14%
14.5°
3
Windvlaag: 4.3 m/s
12%
05:00
15°
1002.1 hPa
14%
14.3°
3
Windvlaag: 4.7 m/s
54%
06:00
15°
1001.8 hPa
27%
14.2°
3
Windvlaag: 4.4 m/s
49%
07:00
15°
1001.5 hPa
72%
14.1°
4
Windvlaag: 5 m/s
82%
08:00
15°
1001.4 hPa
69%
14.1°
4
Windvlaag: 5.7 m/s
85%
09:00
16°
1001.2 hPa
76%
14.8°
4
Windvlaag: 6.3 m/s
82%
10:00
17°
1001.2 hPa 0.7 mm
82%
14.4°
4
Windvlaag: 7.3 m/s
86%
11:00
17°
1001.2 hPa 1.6 mm
82%
14.3°
5
Windvlaag: 8 m/s
86%
12:00
17°
1001.2 hPa 0.7 mm
82%
15.2°
4
Windvlaag: 8.2 m/s
68%
13:00
18°
1001.0 hPa 0.6 mm
82%
15.9°
4
Windvlaag: 7.4 m/s
68%
14:00
19°
1000.8 hPa
82%
16.5°
4
Windvlaag: 7 m/s
74%
15:00
19°
1000.7 hPa 1.0 mm
82%
16.4°
4
Windvlaag: 8.2 m/s
77%
16:00
19°
1000.7 hPa 1.3 mm
82%
16.7°
5
Windvlaag: 8.1 m/s
76% warningclass
17:00
19°
1000.8 hPa 1.2 mm
82%
16.0°
5
Windvlaag: 8.3 m/s
78% warningclass
18:00
18°
1001.2 hPa 2.0 mm
82%
15.7°
5
Windvlaag: 8.4 m/s
20% warningclass
19:00
18°
1001.6 hPa
82%
15.6°
5
Windvlaag: 7.7 m/s
14%
20:00
18°
1001.9 hPa
82%
15.4°
4
Windvlaag: 7.4 m/s
12%
21:00
17°
1002.3 hPa
27%
15.1°
4
Windvlaag: 7.7 m/s
13%
22:00
17°
1002.8 hPa
16%
14.6°
5
Windvlaag: 8.2 m/s
34%
23:00
16°
1003.0 hPa
14%
14.0°
5
Windvlaag: 8.5 m/s
36%
 06:03     21:17    Daglengte: 15:14 Zaterdag 07 Aug
00:00
15°
1003.1 hPa
14%
13.2°
5
Windvlaag: 9 m/s
53%
01:00
15°
1003.1 hPa
14%
13.2°
4
Windvlaag: 9.2 m/s
49%
02:00
15°
1003.2 hPa
14%
12.9°
4
Windvlaag: 9.1 m/s
53%
03:00
15°
1003.1 hPa
14%
12.4°
5
Windvlaag: 8.6 m/s
32%
04:00
14°
1003.2 hPa
14%
11.9°
5
Windvlaag: 8.4 m/s
13%
05:00
14°
1003.1 hPa
14%
11.9°
4
Windvlaag: 7.8 m/s
35%
06:00
14°
1003.1 hPa
14%
11.9°
4
Windvlaag: 7.6 m/s
22%
07:00
13°
1003.3 hPa
14%
11.9°
4
Windvlaag: 7.6 m/s
58%
08:00
14°
1003.3 hPa
14%
12.5°
5
Windvlaag: 8.4 m/s
65%
09:00
16°
1003.4 hPa
14%
12.9°
5
Windvlaag: 8.8 m/s
21%
10:00
17°
1003.4 hPa
14%
13.4°
5
Windvlaag: 8.6 m/s
20%
11:00
18°
1003.2 hPa
24%
13.0°
4
Windvlaag: 8.1 m/s
74%
12:00
19°
1002.8 hPa
82%
12.3°
4
Windvlaag: 7.1 m/s
65%
13:00
19°
1002.5 hPa
100%
12.0°
4
Windvlaag: 7.1 m/s
77%
14:00
20°
1002.1 hPa
33%
12.1°
4
Windvlaag: 6.7 m/s
86%
15:00
20°
1001.7 hPa
28%
12.3°
4
Windvlaag: 5.9 m/s
88%
16:00
20°
1001.4 hPa 2.5 mm
100%
12.1°
3
Windvlaag: 5.8 m/s
38%
17:00
21°
1000.9 hPa 1.7 mm
100%
10.4°
3
Windvlaag: 6.6 m/s
34%
18:00
20°
1000.8 hPa 1.8 mm
100%
9.8°
3
Windvlaag: 6.8 m/s
79% warningclass
19:00
19°
1000.6 hPa 1.8 mm
100%
9.7°
2
Windvlaag: 7.3 m/s
56% warningclass
20:00
19°
1000.8 hPa 1.4 mm
100%
9.9°
2
Windvlaag: 2.1 m/s
49%
21:00
17°
1000.8 hPa 1.5 mm
99%
10.7°
2
Windvlaag: 2.7 m/s
51%
22:00
16°
1000.9 hPa
89%
10.6°
2
Windvlaag: 5 m/s
50%
23:00
16°
1000.8 hPa 2.7 mm
91%
11.2°
2
Windvlaag: 6.3 m/s
53%
 06:05     21:15    Daglengte: 15:10 Zondag 08 Aug
00:00
15°
1000.7 hPa 2.2 mm
77%
12.2°
3
Windvlaag: 5.4 m/s
72%
01:00
15°
1000.4 hPa
24%
12.8°
4
Windvlaag: 7.6 m/s
54%
02:00
15°
1000.3 hPa
28%
12.9°
4
Windvlaag: 7.8 m/s
59%
03:00
15°
1000.2 hPa
21%
12.5°
4
Windvlaag: 9 m/s
65%
04:00
15°
1000.3 hPa
23%
11.8°
5
Windvlaag: 9.3 m/s
83%
05:00
15°
1000.4 hPa
23%
13.2°
5
Windvlaag: 10.1 m/s
89%
06:00
15°
1000.4 hPa 3.3 mm
23%
13.2°
4
Windvlaag: 10.3 m/s
98%
07:00
15°
1000.4 hPa 3.0 mm
24%
13.5°
4
Windvlaag: 10.3 m/s
99%
08:00
15°
1000.8 hPa 2.8 mm
21%
13.8°
5
Windvlaag: 9.8 m/s
74%
09:00
16°
1001.1 hPa   -35.9°
5
Windvlaag: 0 m/s
75%
Temp/Neerslag /Baro Onweer/Dauwpunt
    Temp Baro Neerslag Dauwpunt Wind Bewolking  
 06:00     21:20    Daglengte: 15:20 Vandaag
17:00
21°
1007.0 hPa 0.9 mm 17.0°
2
50%
20:00
20°
1006.0 hPa 0.3 mm 16.8°
1
40%
23:00
17°
1005.1 hPa   15.7°
2
68%
 06:02     21:18    Daglengte: 15:16 Morgen
02:00
15°
1003.6 hPa   15.0°
3
14%
05:00
15°
1002.1 hPa   14.3°
3
54%
08:00
15°
1001.4 hPa   14.1°
4
85%
11:00
17°
1001.2 hPa 2.2 mm 14.3°
5
86%
14:00
19°
1000.8 hPa 1.4 mm 16.5°
4
74%
17:00
19°
1000.8 hPa 3.4 mm 16.0°
5
78% warningclass
20:00
18°
1001.9 hPa 2.0 mm 15.4°
4
12%
23:00
16°
1003.0 hPa   14.0°
5
36%
 06:03     21:17    Daglengte: 15:14 Zaterdag 07 Aug
02:00
15°
1003.2 hPa   12.9°
4
53%
05:00
14°
1003.1 hPa   11.9°
4
35%
08:00
14°
1003.3 hPa   12.5°
5
65%
11:00
18°
1003.2 hPa   13.0°
4
74%
14:00
20°
1002.1 hPa   12.1°
4
86%
17:00
21°
1000.9 hPa 4.2 mm 10.4°
3
34%
20:00
19°
1000.8 hPa 5.0 mm 9.9°
2
49%
23:00
16°
1000.8 hPa 4.1 mm 11.2°
2
53%
 06:05     21:15    Daglengte: 15:10 Zondag 08 Aug
02:00
15°
1000.3 hPa 2.2 mm 12.9°
4
59%
05:00
15°
1000.4 hPa   13.2°
5
89%
08:00
15°
1000.8 hPa 9.0 mm 13.8°
5
74%
11:00
17°
1001.9 hPa 3.7 mm 14.7°
6
1%
14:00
18°
1003.8 hPa 5.3 mm 14.5°
7
88% warningclass
17:00
18°
1007.0 hPa 19.8 mm 14.9°
8
1%
20:00
17°
1008.7 hPa 20.0 mm 13.5°
7
1%
23:00
15°
1010.3 hPa 20.0 mm 10.8°
6
0%
 06:07     21:13    Daglengte: 15:06 Maandag 09 Aug
02:00
14°
1011.1 hPa 20.0 mm 10.9°
6
0%
05:00
13°
1011.2 hPa 20.0 mm 10.4°
6
0%
08:00
14°
1011.9 hPa 20.0 mm 11.3°
6
0%
11:00
16°
1012.9 hPa 20.3 mm 13.4°
7
1%
14:00
18°
1013.6 hPa 21.3 mm 14.2°
6
1%
17:00
17°
1014.9 hPa 23.4 mm 14.6°
5
1%
20:00
16°
1015.9 hPa 24.3 mm 14.1°
4
1%
23:00
13°
1016.9 hPa 24.3 mm 12.2°
4
0%
 06:08     21:11    Daglengte: 15:03 Dinsdag 10 Aug
02:00
13°
1017.3 hPa 24.3 mm 11.7°
4
0%
05:00
13°
1017.3 hPa 24.4 mm 12.2°
4
1%
08:00
15°
1018.7 hPa 25.3 mm 13.9°
2
1%
11:00
19°
1019.4 hPa 25.3 mm 13.9°
4
1%
14:00
21°
1019.9 hPa 25.4 mm 13.2°
4
1%
17:00
20°
1019.8 hPa 25.6 mm 13.8°
4
1%
20:00
18°
1019.9 hPa 26.2 mm 15.4°
2
1%
23:00
14°
1020.3 hPa 26.2 mm 12.5°
1
0%
 06:10     21:09    Daglengte: 14:59 Woensdag 11 Aug
02:00
13°
1020.1 hPa 26.2 mm 11.4°
2
0%
05:00
11°
1019.0 hPa 26.2 mm 10.1°
2
1%
08:00
14°
1018.9 hPa 26.2 mm 11.5°
2
1%
11:00
19°
1018.5 hPa 26.2 mm 12.3°
2
0%
14:00
22°
1017.5 hPa 26.2 mm 12.8°
2
0%
17:00
22°
1016.3 hPa 26.3 mm 13.3°
1
1%
20:00
19°
1015.8 hPa 26.3 mm 15.1°
2
1%
23:00
17°
1015.6 hPa 26.3 mm 12.5°
3
1%
 06:12     21:07    Daglengte: 14:55 Donderdag 12 Aug
02:00
16°
1014.8 hPa 26.3 mm 12.0°
3
1%
05:00
16°
1013.5 hPa 26.3 mm 12.8°
3
1%
08:00
16°
1013.6 hPa 26.6 mm 14.6°
2
1%
11:00
17°
1014.2 hPa 27.3 mm 15.8°
2
1%
14:00
17°
1015.2 hPa 56.6 mm 15.5°
2
1%
20:00
16°
1017.1 hPa 66.0 mm 15.2°
3
1%
 06:13     21:04    Daglengte: 14:51 Vrijdag 13 Aug
02:00
15°
1019.8 hPa 66.5 mm 14.1°
3
1%
08:00
16°
1021.0 hPa 66.5 mm 14.8°
2
0%
14:00
20°
1022.1 hPa 66.9 mm 15.7°
4
0%
20:00
18°
1022.8 hPa 68.4 mm 15.0°
4
1%
 06:15     21:02    Daglengte: 14:47 Zaterdag 14 Aug
02:00
12°
1023.4 hPa 68.5 mm 11.5°
3
0%
08:00
14°
1022.6 hPa 68.5 mm 12.0°
2
0%
14:00
23°
1021.2 hPa 68.5 mm 14.7°
4
0%
20:00
19°
1020.5 hPa 68.5 mm 15.4°
3
0%
 06:17     21:00    Daglengte: 14:43 Zondag 15 Aug
02:00
14°
1020.3 hPa 68.5 mm 12.6°
1
1%
08:00
16°
1019.2 hPa 68.5 mm 14.0°
1
0%
14:00
19°
1012.5 hPa 0.7 mm 13.5°
4
60%
20:00
17°
1012.1 hPa 1.1 mm 13.7°
3
62%
 06:18     20:58    Daglengte: 14:40 Maandag 16 Aug
02:00
15°
1012.3 hPa 0.7 mm 12.2°
2
52%
08:00
15°
1011.8 hPa 0.7 mm 12.6°
3
58%
14:00
20°
1012.8 hPa 0.3 mm 14.3°
4
60%
20:00
17°
1013.4 hPa 1.2 mm 13.9°
4
58%
 06:20     20:56    Daglengte: 14:36 Dinsdag 17 Aug
02:00
15°
1014.2 hPa 0.4 mm 12.3°
3
56%
08:00
15°
1014.2 hPa 0.7 mm 12.7°
4
63%
14:00
19°
1015.0 hPa 1.1 mm 14.4°
4
64%
20:00
18°
1014.6 hPa 1.3 mm 14.3°
3
60%
 06:22     20:54    Daglengte: 14:32 Woensdag 18 Aug
02:00
16°
1014.6 hPa 0.5 mm 13.1°
3
58%
08:00
16°
1014.1 hPa 1.0 mm 13.8°
4
62%
14:00
20°
1014.5 hPa 1.4 mm 14.9°
4
63%
20:00
18°
1014.2 hPa 1.5 mm 14.4°
3
56%
 06:24     20:52    Daglengte: 14:28 Donderdag 19 Aug
02:00
16°
1014.6 hPa 1.8 mm 13.3°
2
62%
08:00
16°
1014.2 hPa 0.1 mm 13.7°
2
60%
14:00
19°
1014.5 hPa 1.2 mm 14.9°
3
61%
20:00
18°
1014.2 hPa 1.3 mm 14.6°
2
54%
 06:25     20:49    Daglengte: 14:24 Vrijdag 20 Aug
02:00
15°
1014.3 hPa 0.5 mm 13.2°
2
58%
08:00
15°
1013.9 hPa 0.4 mm 13.3°
2
50%
14:00
19°
1014.2 hPa 0.8 mm 14.4°
3
52%
  CAPE Lifted Index Hail Supercell Tornado SRH 3km CL BTM PRES CL TOP PRES Swiss DWD icon SMHI TS
 06:00     21:20    Daglengte: 15:20 Vandaag
15:00 442 J/kg -1.5 K 0 % 0 % 0 % 0 m²/s² 0 0 -0.24 2
16:00 422 J/kg -1.7 K 0 % 0 % 0 % 0 m²/s² 0 0 -0.41 3
17:00 440 J/kg -1.9 K 0 % 0 % 0 % 0 m²/s² 0 0 -0.67 80
18:00 473 J/kg -2.1 K 0 % 0 % 0 % 0 m²/s² 0 0 -1.17 2
19:00 451 J/kg -2.1 K 0 % 0 % 0 % 0 m²/s² 0 0 -1.08 80
20:00 493 J/kg -2.2 K 0 % 0 % 0 % 0 m²/s² 0 0 -1.33 3
21:00 459 J/kg -2.2 K 0 % 0 % 0 % 0 m²/s² 0 0 -1.12 3
22:00 358 J/kg -1.9 K 0 % 0 % 0 % 0 m²/s² 0 0 -0.97 80
23:00 153 J/kg -1.1 K 0 % 0 % 0 % 0 m²/s² 0 0 -0.11 3
 06:02     21:18    Daglengte: 15:16 Morgen
00:00 112 J/kg -0.7 K 0 % 0 % 0 % 0 m²/s² 0 0 -0.01 3
01:00 58 J/kg 0.0 K 0 % 0 % 0 % 0 m²/s² 0 0 0.99 3
02:00 69 J/kg 0.1 K 0 % 0 % 0 % 0 m²/s² 0 0 1.78 2
03:00 46 J/kg 0.3 K 0 % 0 % 0 % 0 m²/s² 0 0 2.61 2
04:00 41 J/kg 0.5 K 0 % 0 % 0 % 0 m²/s² 0 0 2.81 2
05:00 0 J/kg 0.4 K 0 % 0 % 0 % 0 m²/s² 0 0 2.38 3
06:00 0 J/kg 0.2 K 0 % 0 % 0 % 0 m²/s² 0 0 2 3
07:00 0 J/kg -0.3 K 0 % 0 % 0 % 0 m²/s² 0 0 1.5 61
08:00 0 J/kg -1.0 K 0 % 0 % 0 % 0 m²/s² 0 0 0.14 3
09:00 0 J/kg -0.9 K 0 % 0 % 0 % 0 m²/s² 0 0 -0.72 3
10:00 396 J/kg -1.4 K 0 % 0 % 0 % 0 m²/s² 0 0 -1.28 61
11:00 612 J/kg -2.1 K 0 % 0 % 0 % 0 m²/s² 0 0 -1.77 63
12:00 660 J/kg -2.4 K 0 % 0 % 0 % 0 m²/s² 0 0 -1.98 3
13:00 559 J/kg -1.9 K 0 % 0 % 0 % 0 m²/s² 0 0 -1.39 80
14:00 826 J/kg -2.7 K 0 % 0 % 0 % 0 m²/s² 0 0 -1.14 80
15:00 656 J/kg -2.0 K 0 % 0 % 0 % 0 m²/s² 0 0 -0.44 80
16:00 700 J/kg -2.4 K 0 % 0 % 0 % 0 m²/s² 0 0 -0.96 95
17:00 786 J/kg -2.6 K 0 % 0 % 0 % 0 m²/s² 0 0 -1.19 95
18:00 298 J/kg -1.3 K 0 % 0 % 0 % 0 m²/s² 0 0 -0.37 95
19:00 73 J/kg -1.0 K 0 % 0 % 0 % 0 m²/s² 0 0 -0.52 80
20:00 663 J/kg -2.7 K 0 % 0 % 0 % 0 m²/s² 0 0 -1.2 80
21:00 724 J/kg -3.0 K 0 % 0 % 0 % 0 m²/s² 0 0 -0.09 1
22:00 684 J/kg -2.8 K 0 % 0 % 0 % 0 m²/s² 0 0 0.26 3
23:00 531 J/kg -2.2 K 0 % 0 % 0 % 0 m²/s² 0 0 0.77 3
 06:03     21:17    Daglengte: 15:14 Zaterdag 07 Aug
00:00 30 J/kg -0.8 K 0 % 0 % 0 % 0 m²/s² 0 0 1.93 2
01:00 0 J/kg -0.6 K 0 % 0 % 0 % 0 m²/s² 0 0 1.29 2
02:00 0 J/kg -0.6 K 0 % 0 % 0 % 0 m²/s² 0 0 0.87 2
03:00 0 J/kg -0.3 K 0 % 0 % 0 % 0 m²/s² 0 0 1.59 2
04:00 0 J/kg -0.2 K 0 % 0 % 0 % 0 m²/s² 0 0 2.74 2
05:00 0 J/kg -0.3 K 0 % 0 % 0 % 0 m²/s² 0 0 2.82 2
06:00 0 J/kg -0.5 K 0 % 0 % 0 % 0 m²/s² 0 0 2.62 3
07:00 0 J/kg -0.5 K 0 % 0 % 0 % 0 m²/s² 0 0 2.2 3
08:00 0 J/kg -0.2 K 0 % 0 % 0 % 0 m²/s² 0 0 2.14 3
09:00 81 J/kg -0.2 K 0 % 0 % 0 % 0 m²/s² 0 0 1.99 2
10:00 354 J/kg -1.3 K 0 % 0 % 0 % 0 m²/s² 0 0 0.56 2
11:00 452 J/kg -1.8 K 0 % 0 % 0 % 0 m²/s² 0 0 -0.12 1
12:00 409 J/kg -1.6 K 0 % 0 % 0 % 0 m²/s² 0 0 -0.01 1
13:00 439 J/kg -2.0 K 0 % 0 % 0 % 0 m²/s² 0 0 -0.68 2
14:00 567 J/kg -2.4 K 0 % 0 % 0 % 0 m²/s² 0 0 -1.44 2
15:00 584 J/kg -2.4 K 0 % 0 % 0 % 0 m²/s² 0 0 -1.2 3
16:00 686 J/kg -2.8 K 0 % 0 % 0 % 0 m²/s² 0 0 -1.27 80
17:00 413 J/kg -1.7 K 0 % 0 % 0 % 0 m²/s² 0 0 0.25 80
18:00 336 J/kg -1.4 K 0 % 0 % 0 % 0 m²/s² 0 0 0.82 95
19:00 347 J/kg -1.5 K 0 % 0 % 0 % 0 m²/s² 0 0 0.72 95
20:00 251 J/kg -1.2 K 0 % 0 % 0 % 0 m²/s² 0 0 1.53 3
21:00 171 J/kg -0.8 K 0 % 0 % 0 % 0 m²/s² 0 0 1.21 3
22:00 82 J/kg -0.6 K 0 % 0 % 0 % 0 m²/s² 0 0 1.77 3
23:00 29 J/kg -0.2 K 0 % 0 % 0 % 0 m²/s² 0 0 2.08 80
 06:05     21:15    Daglengte: 15:10 Zondag 08 Aug
00:00 14 J/kg 0.0 K 0 % 0 % 0 % 0 m²/s² 0 0 2.37 3
01:00 23 J/kg -0.4 K 0 % 0 % 0 % 0 m²/s² 0 0 2.33 3
02:00 5 J/kg -0.8 K 0 % 0 % 0 % 0 m²/s² 0 0 1.57 3
03:00 0 J/kg -1.4 K 0 % 0 % 0 % 0 m²/s² 0 0 0.43 2
04:00 12 J/kg -1.7 K 0 % 0 % 0 % 0 m²/s² 0 0 -0.92 3
05:00 0 J/kg 0.0 K 0 % 0 % 0 % 0 m²/s² 0 0 0.09 2
06:00 0 J/kg 0.4 K 0 % 0 % 0 % 0 m²/s² 0 0 0.82 3
07:00 39 J/kg -1.4 K 0 % 0 % 0 % 0 m²/s² 0 0 -0.62 3
08:00 86 J/kg -1.4 K 0 % 0 % 0 % 0 m²/s² 0 0 -0.14 2
09:00 0 J/kg 0.0 K 0 % 0 % 0 % 0 m²/s² 0 0 13.83 3
Temp Baro Wind Neerslag
  EWN Forecast EWN WRFDA DWD ICON FMI HIRLAM MET Norway GFS
 06:00     21:20    Daglengte: 15:20 Vandaag
17:00 21.2° 1007.0 hPa 1.8 m/s 0.9 mm 22.4° 1005.8 hPa 2.9 m/s 0.6 mm 21.0° 1007.2 hPa 2.2 m/s -1.2 mm 20.6° 1006.5 hPa 0.7 m/s 0.0 mm 21.7° 1006.8 hPa 2.3 m/s
20:00 19.6° 1006.0 hPa 1.5 m/s 0.3 mm 22.0° 1004.6 hPa 1.9 m/s 1.3 mm 19.3° 1006.2 hPa 2.5 m/s 1.2 mm 18.8° 1005.7 hPa 0.6 m/s 0.0 mm 19.1° 1005.4 hPa 3.1 m/s
23:00 16.6° 1005.1 hPa 2.2 m/s 0.0 mm 16.5° 1004.1 hPa 3.6 m/s 1.4 mm 16.6° 1005.8 hPa 2.1 m/s 0.3 mm 16.4° 1004.9 hPa 1.6 m/s 0.0 mm 16.8° 1004.4 hPa 3.5 m/s
 06:02     21:18    Daglengte: 15:16 Morgen
02:00 15.4° 1003.6 hPa 2.7 m/s 0.0 mm 14.8° 1002.6 hPa 3.5 m/s 1.5 mm 15.5° 1003.9 hPa 2.6 m/s 0.0 mm 15.2° 1003.1 hPa 2.1 m/s 0.0 mm 15.4° 1003.0 hPa 3.2 m/s
05:00 14.6° 1002.1 hPa 3.0 m/s 0.0 mm 13.3° 1001.3 hPa 3.0 m/s 1.5 mm 14.7° 1002.3 hPa 2.8 m/s 0.0 mm 14.6° 1001.7 hPa 2.6 m/s 0.0 mm 13.7° 1001.7 hPa 3.5 m/s
08:00 15.3° 1001.4 hPa 3.6 m/s 0.0 mm 15.6° 1000.5 hPa 3.7 m/s 1.5 mm 15.7° 1001.7 hPa 3.1 m/s 0.1 mm 15.0° 1000.2 hPa 3.5 m/s 0.0 mm 15.3° 1001.0 hPa 4.5 m/s
11:00 16.6° 1001.2 hPa 4.5 m/s 2.2 mm 20.9° 999.8 hPa 6.4 m/s 2.2 mm 16.2° 1001.5 hPa 3.7 m/s 3.1 mm 16.5° 1000.1 hPa 4.4 m/s 0.0 mm 16.0° 1001.5 hPa 4.9 m/s
14:00 18.8° 1000.8 hPa 4.1 m/s 1.4 mm 21.3° 999.7 hPa 6.0 m/s 5.5 mm 19.2° 1001.1 hPa 4.4 m/s 1.2 mm 18.7° 999.7 hPa 3.8 m/s 0.0 mm 18.9° 1001.1 hPa 5.6 m/s
17:00 19.0° 1000.8 hPa 4.5 m/s 3.4 mm 21.2° 999.4 hPa 4.5 m/s 7.6 mm 18.8° 1001.6 hPa 4.5 m/s 2.8 mm 18.8° 999.3 hPa 3.8 m/s 0.0 mm 18.5° 1001.5 hPa 6.3 m/s
20:00 17.5° 1001.9 hPa 4.4 m/s 2.0 mm 17.5° 1000.4 hPa 3.3 m/s 14.7 mm 17.7° 1002.4 hPa 3.7 m/s 1.7 mm 17.5° 1000.7 hPa 4.4 m/s 0.0 mm 16.9° 1001.9 hPa 6.0 m/s
23:00 16.1° 1003.0 hPa 4.9 m/s 0.0 mm 16.7° 1001.6 hPa 3.0 m/s 16.3 mm 15.8° 1003.4 hPa 2.5 m/s 0.0 mm 16.4° 1002.1 hPa 5.4 m/s 0.0 mm 14.2° 1003.0 hPa 4.2 m/s
 06:03     21:17    Daglengte: 15:14 Zaterdag 07 Aug
02:00 14.8° 1003.2 hPa 4.3 m/s 0.0 mm 13.4° 1001.3 hPa 4.5 m/s 16.4 mm 14.5° 1003.6 hPa 2.8 m/s 0.0 mm 15.2° 1002.9 hPa 4.3 m/s 0.0 mm 13.1° 1003.4 hPa 5.1 m/s
05:00 13.9° 1003.1 hPa 4.5 m/s 0.0 mm 11.7° 1000.9 hPa 4.2 m/s 16.4 mm 14.0° 1003.6 hPa 2.8 m/s 0.0 mm 14.6° 1003.0 hPa 4.8 m/s 0.0 mm 12.1° 1003.7 hPa 4.8 m/s
08:00 14.4° 1003.3 hPa 4.6 m/s 0.0 mm 13.8° 1001.3 hPa 5.5 m/s 16.4 mm 14.8° 1003.8 hPa 3.0 m/s 0.0 mm 14.4° 1003.4 hPa 4.7 m/s 0.0 mm 13.3° 1003.6 hPa 4.9 m/s
11:00 17.9° 1003.2 hPa 4.4 m/s 0.0 mm 18.1° 1001.4 hPa 5.6 m/s 16.4 mm 18.8° 1003.6 hPa 4.1 m/s 0.0 mm 18.3° 1003.8 hPa 5.7 m/s
14:00 19.7° 1002.1 hPa 3.7 m/s 0.0 mm 20.1° 1000.8 hPa 5.2 m/s 17.2 mm 21.2° 1002.5 hPa 3.5 m/s 0.1 mm 19.9° 1003.3 hPa 5.2 m/s
17:00 20.6° 1000.9 hPa 3.0 m/s 4.2 mm 21.2° 1000.3 hPa 3.7 m/s 18.1 mm 20.9° 1001.5 hPa 2.9 m/s 1.0 mm 20.0° 1002.5 hPa 5.1 m/s
20:00 18.8° 1000.8 hPa 1.6 m/s 5.0 mm 20.1° 999.7 hPa 1.5 m/s 18.4 mm 18.9° 1000.9 hPa 2.3 m/s 2.2 mm 17.2° 1002.1 hPa 3.8 m/s
23:00 15.6° 1000.8 hPa 2.5 m/s 4.1 mm 14.3° 999.9 hPa 2.4 m/s 18.5 mm 15.9° 1000.8 hPa 1.6 m/s 1.2 mm 14.0° 1002.5 hPa 3.5 m/s
 06:05     21:15    Daglengte: 15:10 Zondag 08 Aug
02:00 15.0° 1000.3 hPa 3.9 m/s 2.2 mm 13.5° 999.2 hPa 2.9 m/s 18.5 mm 15.7° 1000.4 hPa 3.6 m/s 0.2 mm 13.8° 1002.2 hPa 4.5 m/s
05:00 14.8° 1000.4 hPa 5.1 m/s 0.0 mm 14.4° 999.4 hPa 5.0 m/s 19.3 mm 15.2° 1000.5 hPa 3.6 m/s 0.0 mm 13.2° 1001.9 hPa 5.6 m/s
08:00 15.1° 1000.8 hPa 5.0 m/s 9.0 mm 14.9° 999.4 hPa 4.4 m/s 23.5 mm 15.3° 1000.8 hPa 4.3 m/s 0.0 mm 13.6° 1002.7 hPa 6.5 m/s
11:00 16.9° 1001.9 hPa 5.8 m/s 3.7 mm 17.2° 1001.6 hPa 5.7 m/s 0.2 mm 14.6° 1004.3 hPa 6.8 m/s 17.9 mm
14:00 18.3° 1003.8 hPa 6.6 m/s 5.3 mm 18.3° 1003.7 hPa 6.4 m/s 2.1 mm 18.4° 1004.9 hPa 8.1 m/s 18.3 mm
17:00 18.2° 1007.0 hPa 7.6 m/s 19.8 mm 18.2° 1007.0 hPa 7.6 m/s 19.8 mm
20:00 16.7° 1008.7 hPa 7.0 m/s 20.0 mm 16.7° 1008.7 hPa 7.0 m/s 20.0 mm
23:00 15.1° 1010.3 hPa 6.4 m/s 20.0 mm 15.1° 1010.3 hPa 6.4 m/s 20.0 mm
 06:07     21:13    Daglengte: 15:06 Maandag 09 Aug
02:00 14.1° 1011.1 hPa 6.3 m/s 20.0 mm 14.1° 1011.1 hPa 6.3 m/s 20.0 mm
05:00 12.7° 1011.2 hPa 6.1 m/s 20.0 mm 12.7° 1011.2 hPa 6.1 m/s 20.0 mm
08:00 13.7° 1011.9 hPa 6.2 m/s 20.0 mm 13.7° 1011.9 hPa 6.2 m/s 20.0 mm
11:00 16.3° 1012.9 hPa 6.9 m/s 20.3 mm 16.3° 1012.9 hPa 6.9 m/s 20.3 mm
14:00 17.8° 1013.6 hPa 6.5 m/s 21.3 mm 17.8° 1013.6 hPa 6.5 m/s 21.3 mm
17:00 16.8° 1014.9 hPa 5.4 m/s 23.4 mm 16.8° 1014.9 hPa 5.4 m/s 23.4 mm
20:00 16.3° 1015.9 hPa 4.4 m/s 24.3 mm 16.3° 1015.9 hPa 4.4 m/s 24.3 mm
23:00 13.2° 1016.9 hPa 3.7 m/s 24.3 mm 13.2° 1016.9 hPa 3.7 m/s 24.3 mm
 06:08     21:11    Daglengte: 15:03 Dinsdag 10 Aug
02:00 12.7° 1017.3 hPa 3.8 m/s 24.3 mm 12.7° 1017.3 hPa 3.8 m/s 24.3 mm
05:00 13.0° 1017.3 hPa 3.8 m/s 24.4 mm 13.0° 1017.3 hPa 3.8 m/s 24.4 mm
08:00 15.2° 1018.7 hPa 2.2 m/s 25.3 mm 15.2° 1018.7 hPa 2.2 m/s 25.3 mm
11:00 19.2° 1019.4 hPa 3.7 m/s 25.3 mm 19.2° 1019.4 hPa 3.7 m/s 25.3 mm
14:00 20.9° 1019.9 hPa 4.1 m/s 25.4 mm 20.9° 1019.9 hPa 4.1 m/s 25.4 mm
17:00 20.0° 1019.8 hPa 3.9 m/s 25.6 mm 20.0° 1019.8 hPa 3.9 m/s 25.6 mm
20:00 17.6° 1019.9 hPa 2.4 m/s 26.2 mm 17.6° 1019.9 hPa 2.4 m/s 26.2 mm
23:00 13.7° 1020.3 hPa 1.1 m/s 26.2 mm 13.6° 1020.3 hPa 1.1 m/s 26.2 mm
 06:10     21:09    Daglengte: 14:59 Woensdag 11 Aug
02:00 12.6° 1020.1 hPa 1.8 m/s 26.2 mm 12.6° 1020.1 hPa 1.8 m/s 26.2 mm
05:00 11.4° 1019.0 hPa 2.1 m/s 26.2 mm 11.4° 1019.0 hPa 2.1 m/s 26.2 mm
08:00 13.7° 1018.9 hPa 1.7 m/s 26.2 mm 13.7° 1018.9 hPa 1.7 m/s 26.2 mm
11:00 18.7° 1018.5 hPa 2.2 m/s 26.2 mm 18.7° 1018.5 hPa 2.2 m/s 26.2 mm
14:00 21.6° 1017.5 hPa 1.6 m/s 26.2 mm 21.6° 1017.5 hPa 1.6 m/s 26.2 mm
17:00 22.2° 1016.3 hPa 0.6 m/s 26.3 mm 22.2° 1016.3 hPa 0.6 m/s 26.3 mm
20:00 18.8° 1015.8 hPa 2.4 m/s 26.3 mm 18.8° 1015.8 hPa 2.4 m/s 26.3 mm
23:00 16.5° 1015.6 hPa 3.0 m/s 26.3 mm 16.5° 1015.6 hPa 3.0 m/s 26.3 mm
 06:12     21:07    Daglengte: 14:55 Donderdag 12 Aug
02:00 15.6° 1014.8 hPa 3.2 m/s 26.3 mm 15.6° 1014.8 hPa 3.2 m/s 26.3 mm
05:00 15.8° 1013.5 hPa 2.9 m/s 26.3 mm 15.8° 1013.5 hPa 2.9 m/s 26.3 mm
08:00 16.4° 1013.6 hPa 2.4 m/s 26.6 mm 16.4° 1013.6 hPa 2.4 m/s 26.6 mm
11:00 17.1° 1014.2 hPa 2.5 m/s 27.3 mm 17.1° 1014.2 hPa 2.5 m/s 27.3 mm
14:00 16.8° 1015.2 hPa 2.3 m/s 29.4 mm 16.8° 1015.2 hPa 2.3 m/s 29.4 mm
20:00 16.2° 1017.1 hPa 3.2 m/s 33.2 mm 16.2° 1017.1 hPa 3.2 m/s 33.2 mm
 06:13     21:04    Daglengte: 14:51 Vrijdag 13 Aug
02:00 14.6° 1019.8 hPa 3.2 m/s 33.2 mm 14.6° 1019.8 hPa 3.2 m/s 33.2 mm
08:00 16.1° 1021.0 hPa 2.1 m/s 33.2 mm 16.1° 1021.0 hPa 2.1 m/s 33.2 mm
14:00 20.4° 1022.1 hPa 4.2 m/s 33.6 mm 20.4° 1022.1 hPa 4.2 m/s 33.6 mm
20:00 17.6° 1022.8 hPa 3.8 m/s 34.2 mm 17.6° 1022.8 hPa 3.8 m/s 34.2 mm
 06:15     21:02    Daglengte: 14:47 Zaterdag 14 Aug
02:00 12.5° 1023.4 hPa 2.9 m/s 34.3 mm 12.5° 1023.4 hPa 2.9 m/s 34.3 mm
08:00 14.0° 1022.6 hPa 2.3 m/s 34.3 mm 14.0° 1022.6 hPa 2.3 m/s 34.3 mm
14:00 22.8° 1021.2 hPa 4.2 m/s 34.3 mm 22.8° 1021.2 hPa 4.2 m/s 34.3 mm
20:00 18.9° 1020.5 hPa 2.6 m/s 34.3 mm 18.9° 1020.5 hPa 2.6 m/s 34.3 mm
 06:17     21:00    Daglengte: 14:43 Zondag 15 Aug
02:00 14.0° 1020.3 hPa 1.5 m/s 34.3 mm 14.0° 1020.3 hPa 1.5 m/s 34.3 mm
08:00 16.3° 1019.2 hPa 1.1 m/s 34.3 mm 16.3° 1019.2 hPa 1.1 m/s 34.3 mm
14:00 18.8° 1012.5 hPa 4.4 m/s 0.7 mm
20:00 17.3° 1012.1 hPa 2.5 m/s 1.1 mm
 06:18     20:58    Daglengte: 14:40 Maandag 16 Aug
02:00 15.1° 1012.3 hPa 2.1 m/s 0.7 mm
08:00 15.3° 1011.8 hPa 2.7 m/s 0.7 mm
14:00 19.6° 1012.8 hPa 3.9 m/s 0.3 mm
20:00 17.4° 1013.4 hPa 3.7 m/s 1.2 mm
 06:20     20:56    Daglengte: 14:36 Dinsdag 17 Aug
02:00 14.6° 1014.2 hPa 3.0 m/s 0.4 mm
08:00 15.0° 1014.2 hPa 3.7 m/s 0.7 mm
14:00 19.2° 1015.0 hPa 4.4 m/s 1.1 mm
20:00 17.8° 1014.6 hPa 3.3 m/s 1.3 mm
 06:22     20:54    Daglengte: 14:32 Woensdag 18 Aug
02:00 15.6° 1014.6 hPa 3.0 m/s 0.5 mm
08:00 16.1° 1014.1 hPa 3.7 m/s 1.0 mm
14:00 19.8° 1014.5 hPa 4.0 m/s 1.4 mm
20:00 18.1° 1014.2 hPa 3.4 m/s 1.5 mm
 06:24     20:52    Daglengte: 14:28 Donderdag 19 Aug
02:00 15.6° 1014.6 hPa 2.3 m/s 1.8 mm
08:00 15.8° 1014.2 hPa 2.3 m/s 0.1 mm
14:00 19.4° 1014.5 hPa 2.7 m/s 1.2 mm
20:00 17.8° 1014.2 hPa 2.3 m/s 1.3 mm
 06:25     20:49    Daglengte: 14:24 Vrijdag 20 Aug
02:00 15.4° 1014.3 hPa 1.7 m/s 0.5 mm
08:00 15.2° 1013.9 hPa 2.2 m/s 0.4 mm
14:00 19.3° 1014.2 hPa 2.9 m/s 0.8 mm
FMI Hirlam - 7.5 km EWN WRFDA - 12 km DWD ICON - 7 km GFS - 25 km Basiskaart






























































Updatetijd (Europe/Brussels) Resolutie Lengte Stap
FMI Hirlam 14:00, 20:00, 02:00, 08:00 7.5 km 49h 1h
EWN WRFDA 04:15, 10:15, 16:15, 22:15 12 km 73h 1h
DWD ICON 11:45, 17:45, 23:45, 05:45 7 km 75h 1h
GFS 08:30, 14:30, 20:30, 02:30 25 km 237h 3h
30+ mm
25-30 mm
20-25 mm
15-20 mm
10-15 mm
6-10 mm
4-6 mm
2-4 mm
1-2 mm
0.5-1 mm
0.2-0.5 mm
0.1-0.2 mm
30+ mm
25-30 mm
20-25 mm
15-20 mm
10-15 mm
6-10 mm
4-6 mm
2-4 mm
1-2 mm
0.5-1 mm
0.2-0.5 mm
0.1-0.2 mm
Sneeuwval
Natte sneeuw
Hagel
Vorst
30+ mm
25-30 mm
20-25 mm
15-20 mm
10-15 mm
6-10 mm
4-6 mm
2-4 mm
1-2 mm
0.5-1 mm
0.2-0.5 mm
0.1-0.2 mm
Sneeuwval
Natte sneeuw
Hagel
Vorst
Onweer
50 mm
40 mm
30 mm
26 mm
22 mm
18 mm
14 mm
10 mm
9 mm
8 mm
7 mm
6 mm
5 mm
4.5 mm
4 mm
3.5 mm
3 mm
2.5 mm
2 mm
1.5 mm
1 mm
0.8 mm
0.6 mm
0.4 mm
0.2 mm
0.05 mm
35°
30°
25°
20°
15°
10°
-5°
-10°
-15°
-20°
-25°
-30°
-35°
33> m/s
29 m/s
25 m/s
21 m/s
17 m/s
14 m/s
11 m/s
8 m/s
5 m/s
3 m/s
0 m/s
2600 J/kg
2400 J/kg
2200 J/kg
2000 J/kg
1800 J/kg
1600 J/kg
1400 J/kg
1200 J/kg
1000 J/kg
800 J/kg
600 J/kg
400 J/kg
200 J/kg
70 dBZ
65 dBZ
60 dBZ
55 dBZ
50 dBZ
45 dBZ
40 dBZ
35 dBZ
30 dBZ
25 dBZ
20 dBZ
15 dBZ
10 dBZ
5 dBZ
-1 K
-2 K
-3 K
-4 K
-5 K
-6 K
-7 K
-8 K
-9 K
950 m²/s²
900 m²/s²
850 m²/s²
800 m²/s²
750 m²/s²
700 m²/s²
650 m²/s²
600 m²/s²
550 m²/s²
500 m²/s²
450 m²/s²
400 m²/s²
350 m²/s²
300 m²/s²
250 m²/s²
200 m²/s²
150 m²/s²
100 m²/s²
46 m/s
44 m/s
42 m/s
40 m/s
38 m/s
36 m/s
34 m/s
32 m/s
30 m/s
28 m/s
26 m/s
24 m/s
22 m/s
20 m/s
16 m/s
12 m/s
8 m/s
4 m/s
30 m/s
28 m/s
26 m/s
24 m/s
22 m/s
20 m/s
18 m/s
16 m/s
14 m/s
12 m/s
10 m/s
8 m/s
6 m/s
4 m/s
2 m/s
3.0
2.8
2.6
2.4
2.2
2.0
1.8
1.6
1.4
1.2
1.0
0.8
0.6
0.4
0.2
15
14
13
12
11
10
9
8
7
6
5
4
3
2
1
90%
80%
70%
60%
50%
40%
30%
20%
10%
42
40
38
36
34
32
30
28
26
24
22
20
18
16
14
12
90+ cm
80-90 cm
70-80 cm
60-70 cm
50-60 cm
40-50 cm
30-40 cm
20-30 cm
10-20 cm
1-10 cm
Sneeuwval
Natte sneeuw
Regen
>120 mm
115 mm
110 mm
105 mm
100 mm
95 mm
90 mm
85 mm
80 mm
75 mm
70 mm
65 mm
60 mm
55 mm
50 mm
45 mm
45 mm
40 mm
35 mm